Terminal Aerodrome Forecast
Issued by NWS Houston/Galveston, TX

Home | Current Version | Previous Version | Text Only | Print | Product List | Glossary On
Versions: 1 2 3 4 5 6 7 8 9 10 11 12 13 14 15 16 17 18 19 20 21 22 23 24 25 26 27 28 29 30 31 32 33 34 35 36 37 38 39 40 41 42 43 44 45 46 47 48 49 50
000
FTUS44 KHGX 281444 AAA
TAFGLS
TAF AMD
KGLS 281444Z 2815/2912 31010KT P6SM OVC015
      TEMPO 2817/2819 34014G22KT
     FM281900 34014G22KT P6SM OVC018
     FM290700 35014KT P6SM SCT025=

USA.gov is the U.S. government's official web portal to all federal, state and local government web resources and services.